Orbital Elements at Epoch 2459200.5 (2020-Dec-17.0) TDB
Reference: JPL 16 (heliocentric ecliptic J2000)
Element | Value | Uncertainty (1-sigma) | Units |
e | .1075081868386516 | 4.8436e-08 | |
a | 3.002560452721661 | 2.8967e-08 | au |
q | 2.679760622576114 | 1.3566e-07 | au |
i | 12.57261865092878 | 4.9406e-06 | deg |
node | 118.2116553435052 | 2.8301e-05 | deg |
peri | 148.8049381941116 | 4.1837e-05 | deg |
M | 167.9282067451735 | 3.1129e-05 | deg |
tp | 2458314.043933241460 (2018-Jul-14.54393324) | 0.00016475 | TDB |
period | 1900.360816198894 5.20 | 2.7501e-05 7.529e-08 | d yr |
n | .1894377093714618 | 2.7414e-09 | deg/d |
Q | 3.325360282867208 | 3.2082e-08 | au |
|
| | Orbit Determination Parameters
Additional Information
|